CW1084 Weather Reports


Display with metric or nautical units.
time (UTC)temp
F
wind
direction
speed
MPH
gust
MPH
rain 1hr
in
rain 24hr
in
rain mn
in
humidity
%
barometer
mb
20260509025507 58 179 0.0 5.0 0.00 0.01 0.01 55 1012.2
20260509024934 58 179 0.0 5.0 0.00 0.01 0.01 55 1012.1
20260509024411 58 180 0.0 3.0 0.00 0.01 0.01 55 1012.0
20260509023843 58 180 0.0 3.0 0.00 0.01 0.01 55 1012.0
20260509023319 58 178 0.0 2.0 0.00 0.01 0.01 55 1012.1
20260509022757 58 184 0.0 0.0 0.00 0.01 0.01 55 1012.1
20260509022228 58 188 0.0 6.0 0.00 0.01 0.01 55 1012.1
20260509021705 58 190 0.0 3.0 0.00 0.01 0.01 55 1012.1
20260509021404 58 190 0.0 3.0 0.00 0.01 0.01 55 1012.1
20260509020609 58 190 0.0 4.0 0.00 0.01 0.01 55 1012.1
20260509020316 58 190 0.0 4.0 0.00 0.01 0.01 54 1012.1
20260509015454 58 191 0.0 4.0 0.00 0.01 0.01 54 1012.1
20260509014927 58 191 0.0 4.0 0.00 0.01 0.01 54 1012.1
20260509014625 58 196 0.0 3.0 0.00 0.01 0.01 54 1012.1
20260509013827 59 196 0.0 4.0 0.00 0.01 0.01 54 1012.0
20260509013304 59 196 0.0 4.0 0.00 0.01 0.01 53 1011.9
20260509012738 59 197 0.0 5.0 0.00 0.01 0.01 53 1011.8
20260509012218 59 197 0.0 5.0 0.00 0.01 0.01 53 1011.7
20260509011918 59 197 0.0 2.0 0.00 0.01 0.01 53 1011.7
20260509011128 60 197 0.0 4.0 0.00 0.01 0.01 53 1011.6
20260509010607 60 197 0.0 4.0 0.00 0.01 0.01 53 1011.6
20260509010059 60 197 0.0 4.0 0.00 0.01 0.01 52 1011.6
20260509005520 60 197 0.0 4.0 0.00 0.01 0.01 52 1011.5
20260509004944 60 197 0.0 4.0 0.00 0.01 0.01 52 1011.5
20260509004422 60 230 0.0 4.0 0.00 0.01 0.01 52 1011.4
20260509003900 60 190 0.0 2.0 0.00 0.01 0.01 52 1011.4
20260509003613 60 190 0.0 0.0 0.00 0.01 0.01 51 1011.3
20260509003435 60 190 0.0 0.0 0.00 0.01 0.01 51 1011.3
20260509003019 61 190 0.0 3.0 0.00 0.01 0.01 52 1011.4
20260509002231 61 190 0.0 5.0 0.00 0.01 0.01 51 1011.4
20260509001731 61 148 0.0 5.0 0.00 0.01 0.01 51 1011.3
20260509001133 61 165 0.0 2.0 0.00 0.01 0.01 51 1011.2
20260509000536 61 165 0.0 3.0 0.00 0.01 0.01 51 1011.0
20260509000016 62 165 0.0 3.0 0.00 0.01 0.01 51 1011.0
20260508235452 62 165 0.0 0.0 0.00 0.01 0.01 51 1011.0
20260508234931 62 165 0.0 4.0 0.00 0.01 0.01 51 1011.1
20260508234406 62 165 0.0 4.0 0.00 0.01 0.01 51 1011.1
20260508233845 62 165 0.0 0.0 0.00 0.01 0.01 51 1011.0
20260508233323 62 165 0.0 3.0 0.00 0.01 0.01 50 1011.0
20260508232753 62 165 0.0 3.0 0.00 0.01 0.01 50 1010.8
20260508232219 62 165 0.0 3.0 0.00 0.01 0.01 51 1010.8
20260508231902 62 165 0.0 3.0 0.00 0.01 0.01 51 1010.8
20260508231120 62 165 0.0 0.0 0.00 0.01 0.01 51 1010.9
20260508230820 62 165 0.0 5.0 0.00 0.01 0.01 52 1010.8
20260508230051 62 165 0.0 5.0 0.00 0.01 0.01 52 1010.8
20260508225502 62 157 0.0 4.0 0.00 0.01 0.01 54 1010.8
20260508224929 62 160 0.0 3.0 0.00 0.01 0.01 55 1010.8
20260508224406 62 159 0.0 5.0 0.00 0.01 0.01 56 1010.8
20260508223835 62 165 0.0 5.0 0.00 0.01 0.01 57 1010.9
20260508223802 62 142 0.0 4.0 0.00 0.01 0.01 57 1011.0
20260508223659 62 141 1.0 9.0 0.00 0.01 0.01 58 1011.1
20260508222151 62 140 1.0 11.0 0.00 0.01 0.01 58 1011.1
20260508221637 62 152 2.0 11.0 0.00 0.01 0.01 57 1011.0
20260508221054 62 166 2.0 6.0 0.00 0.01 0.01 57 1011.1
20260508220528 62 176 2.0 12.0 0.00 0.01 0.01 55 1011.0
20260508215954 63 178 1.0 9.0 0.00 0.01 0.01 55 1011.0
20260508215427 63 155 1.0 9.0 0.00 0.01 0.01 54 1011.0
20260508214310 63 154 2.0 12.0 0.00 0.01 0.01 53 1011.0
20260508213732 63 214 2.0 14.0 0.00 0.01 0.01 51 1011.2
20260508213647 64 194 2.0 14.0 0.00 0.01 0.01 52 1011.1
20260508212618 64 166 2.0 13.0 0.00 0.01 0.01 52 1011.1
20260508212143 64 192 2.0 13.0 0.00 0.01 0.01 51 1011.1
20260508211836 65 202 1.0 9.0 0.00 0.01 0.01 51 1011.0
20260508211127 66 138 2.0 13.0 0.00 0.01 0.01 51 1011.2
20260508211058 65 176 2.0 13.0 0.00 0.01 0.01 52 1011.1
20260508205858 66 140 2.0 6.0 0.00 0.01 0.01 50 1011.2
20260508205222 66 115 2.0 10.0 0.00 0.01 0.01 50 1011.3
20260508204642 67 158 1.0 8.0 0.00 0.02 0.01 50 1011.2
20260508204158 67 170 1.0 8.0 0.00 0.02 0.01 49 1011.3
20260508203537 67 155 2.0 9.0 0.00 0.02 0.01 49 1011.4
20260508203355 67 156 2.0 9.0 0.00 0.02 0.01 47 1011.4
20260508202458 68 186 2.0 13.0 0.00 0.02 0.01 47 1011.6
20260508202107 70 114 1.0 7.0 0.00 0.02 0.01 47 1011.5
20260508201831 69 140 2.0 13.0 0.00 0.02 0.01 45 1011.4
20260508200659 71 160 1.0 7.0 0.00 0.02 0.01 45 1011.5
20260508200116 71 155 0.0 5.0 0.00 0.02 0.01 44 1011.4
20260508195518 71 157 0.0 8.0 0.00 0.02 0.01 43 1011.6
20260508195225 70 157 1.0 1.0 0.00 0.02 0.01 46 1011.8
20260508194642 70 136 1.0 8.0 0.00 0.02 0.01 47 1011.7
20260508193823 69 173 1.0 9.0 0.00 0.02 0.01 46 1011.9
20260508193245 70 192 1.0 9.0 0.00 0.02 0.01 46 1011.9
20260508192728 70 158 1.0 6.0 0.00 0.03 0.01 42 1012.0
20260508192600 71 227 1.0 8.0 0.00 0.03 0.01 34 1012.1
20260508191532 71 240 2.0 9.0 0.00 0.03 0.01 34 1012.2
20260508190944 71 265 1.0 9.0 0.00 0.04 0.01 34 1012.1
20260508190425 71 346 1.0 7.0 0.00 0.04 0.01 34 1012.3
20260508190158 71 200 1.0 9.0 0.00 0.04 0.01 35 1012.5
20260508185940 71 200 1.0 9.0 0.00 0.04 0.01 35 1012.5
20260508185325 71 196 1.0 9.0 0.00 0.04 0.01 35 1012.5
20260508184751 71 181 2.0 3.0 0.00 0.04 0.01 34 1012.5
20260508184140 70 236 2.0 9.0 0.00 0.04 0.01 35 1012.5
20260508183839 70 258 1.0 12.0 0.00 0.04 0.01 35 1012.6
20260508183624 70 258 1.0 12.0 0.00 0.04 0.01 35 1012.6
20260508183007 70 215 1.0 12.0 0.00 0.04 0.01 36 1012.6
20260508182530 70 279 1.0 1.0 0.01 0.04 0.01 35 1012.7
20260508181900 69 163 2.0 8.0 0.01 0.04 0.01 37 1012.9
20260508181333 70 208 1.0 11.0 0.01 0.04 0.01 37 1012.9
20260508180703 69 222 1.0 11.0 0.01 0.04 0.01 39 1012.8
20260508180233 68 223 2.0 12.0 0.01 0.04 0.01 38 1012.9
20260508175542 68 207 2.0 12.0 0.01 0.04 0.01 38 1012.8
20260508175011 68 250 2.0 9.0 0.01 0.04 0.01 37 1012.9
20260508174439 68 154 1.0 9.0 0.01 0.04 0.01 37 1012.9
20260508173845 67 276 1.0 7.0 0.01 0.04 0.01 35 1013.0
20260508173224 67 153 2.0 7.0 0.01 0.04 0.01 35 1013.0
20260508172643 67 182 1.0 11.0 0.01 0.04 0.01 35 1013.1
20260508172121 66 167 1.0 9.0 0.00 0.03 0.00 36 1013.1
20260508171859 66 167 1.0 9.0 0.00 0.03 0.00 37 1013.3
20260508171043 65 188 1.0 8.0 0.00 0.03 0.00 47 1013.3
20260508170749 65 111 1.0 8.0 0.00 0.03 0.00 47 1013.5
20260508165942 65 208 1.0 12.0 0.00 0.03 0.00 49 1013.4
20260508165453 64 144 1.0 12.0 0.00 0.03 0.00 50 1013.5
20260508165138 64 189 2.0 9.0 0.00 0.03 0.00 50 1013.6
20260508165117 63 155 1.0 9.0 0.00 0.03 0.00 49 1013.7
20260508163857 63 173 1.0 9.0 0.00 0.03 0.00 46 1013.7
20260508163210 63 178 1.0 10.0 0.00 0.03 0.00 46 1013.8
20260508162540 63 235 1.0 10.0 0.00 0.03 0.00 44 1013.9
20260508162444 63 151 2.0 10.0 0.00 0.03 0.00 40 1013.8
20260508162342 63 108 1.0 9.0 0.00 0.03 0.00 41 1014.0
20260508161818 63 151 2.0 10.0 0.00 0.03 0.00 40 1013.8
20260508161511 63 151 2.0 10.0 0.00 0.03 0.00 40 1013.8
20260508160848 64 152 1.0 10.0 0.00 0.03 0.00 40 1014.0
20260508160629 63 198 1.0 6.0 0.00 0.03 0.00 41 1013.9
20260508155713 63 134 1.0 6.0 0.00 0.03 0.00 39 1014.1
20260508155116 63 127 1.0 7.0 0.00 0.03 0.00 39 1014.1
20260508154527 63 163 1.0 6.0 0.00 0.03 0.00 39 1014.1
20260508153919 62 166 1.0 6.0 0.00 0.03 0.00 37 1014.2
20260508153325 62 110 1.0 5.0 0.00 0.03 0.00 37 1014.3
20260508153031 62 147 0.0 4.0 0.00 0.03 0.00 37 1014.4
20260508152832 62 147 0.0 4.0 0.00 0.03 0.00 37 1014.4
20260508152125 62 148 1.0 6.0 0.00 0.03 0.00 37 1014.5
20260508151611 62 148 0.0 6.0 0.00 0.03 0.00 37 1014.5
20260508151255 62 148 0.0 1.0 0.00 0.03 0.00 35 1014.5
20260508150431 61 148 1.0 4.0 0.00 0.03 0.00 35 1014.6
20260508145843 61 148 0.0 4.0 0.00 0.03 0.00 38 1014.4
20260508145633 61 118 0.0 2.0 0.00 0.03 0.00 37 1014.4
20260508145445 61 118 0.0 2.0 0.00 0.03 0.00 37 1014.4
20260508144759 60 118 0.0 2.0 0.00 0.03 0.00 38 1014.4
20260508144119 60 118 0.0 3.0 0.00 0.03 0.00 37 1014.5
20260508143528 60 118 0.0 3.0 0.00 0.03 0.00 35 1014.6
20260508142959 60 119 0.0 2.0 0.00 0.03 0.00 40 1014.6
20260508142422 60 119 0.0 3.0 0.00 0.03 0.00 37 1014.5
20260508142248 60 117 0.0 3.0 0.00 0.03 0.00 41 1014.5
20260508141322 59 117 0.0 4.0 0.00 0.03 0.00 40 1014.7
20260508140737 59 117 0.0 4.0 0.00 0.03 0.00 41 1014.7
20260508140153 59 155 0.0 2.0 0.00 0.03 0.00 42 1014.7
20260508135833 59 156 0.0 3.0 0.00 0.03 0.00 42 1014.7
20260508135131 59 104 0.0 3.0 0.00 0.03 0.00 43 1014.7
20260508134416 58 104 0.0 9.0 0.00 0.03 0.00 43 1014.7
20260508134238 58 99 0.0 9.0 0.00 0.03 0.00 42 1014.7
20260508134011 58 99 0.0 9.0 0.00 0.03 0.00 42 1014.7
20260508133418 58 120 0.0 5.0 0.00 0.03 0.00 43 1014.6
20260508133352 58 121 0.0 5.0 0.00 0.03 0.00 43 1014.6
20260508132119 58 119 0.0 1.0 0.00 0.03 0.00 43 1014.6
20260508132014 57 133 0.0 5.0 0.00 0.03 0.00 42 1014.6
20260508131715 57 133 0.0 5.0 0.00 0.03 0.00 42 1014.6
20260508131041 57 151 0.0 2.0 0.00 0.03 0.00 41 1014.7
20260508130443 57 151 1.0 5.0 0.00 0.03 0.00 41 1014.7
20260508125915 57 144 1.0 4.0 0.00 0.03 0.00 41 1014.6
20260508125429 56 309 0.0 6.0 0.00 0.03 0.00 40 1014.6
20260508124127 56 211 0.0 2.0 0.00 0.03 0.00 40 1014.3
20260508123803 56 211 0.0 4.0 0.00 0.03 0.00 39 1014.3
20260508123457 55 211 0.0 4.0 0.00 0.03 0.00 38 1014.2
20260508122549 55 209 0.0 4.0 0.00 0.03 0.00 36 1014.1
20260508122317 54 109 0.0 2.0 0.00 0.03 0.00 31 1014.0
20260508121954 54 109 0.0 2.0 0.00 0.03 0.00 31 1014.0
20260508121813 55 355 0.0 4.0 0.00 0.03 0.00 33 1014.1
20260508121440 54 109 0.0 2.0 0.00 0.03 0.00 31 1014.0
20260508120639 54 24 0.0 2.0 0.00 0.03 0.00 30 1014.1
20260508120055 53 15 0.0 4.0 0.00 0.03 0.00 30 1014.0
20260508115503 53 347 0.0 3.0 0.00 0.03 0.00 28 1014.0
20260508114939 52 13 0.0 2.0 0.00 0.03 0.00 24 1014.0
20260508114503 52 12 0.0 3.0 0.00 0.03 0.00 23 1013.9
20260508114133 51 12 0.0 3.0 0.00 0.03 0.00 22 1013.8
20260508113742 51 344 0.0 4.0 0.00 0.03 0.00 21 1013.7
20260508112918 51 308 0.0 4.0 0.00 0.03 0.00 20 1013.7
20260508112054 51 306 0.0 0.0 0.00 0.03 0.00 22 1013.7
20260508111556 51 306 0.0 0.0 0.00 0.03 0.00 26 1013.5
20260508111515 51 306 0.0 0.0 0.00 0.03 0.00 24 1013.6
20260508110648 51 306 0.0 0.0 0.00 0.03 0.00 27 1013.4
20260508105825 51 306 0.0 2.0 0.00 0.03 0.00 28 1013.3
20260508105244 51 306 0.0 2.0 0.00 0.03 0.00 29 1013.2
20260508104721 51 306 0.0 0.0 0.00 0.03 0.00 29 1013.1
20260508104137 51 306 0.0 4.0 0.00 0.03 0.00 29 1013.1
20260508103549 51 306 0.0 4.0 0.00 0.03 0.00 29 1013.0
20260508102951 51 255 0.0 4.0 0.00 0.03 0.00 29 1012.9
20260508102934 51 255 0.0 3.0 0.00 0.03 0.00 29 1012.8
20260508102103 51 0 0.0 4.0 0.00 0.03 0.00 28 1012.8
20260508101228 51 348 0.0 7.0 0.00 0.03 0.00 27 1012.8
20260508100722 51 336 0.0 7.0 0.00 0.03 0.00 27 1012.7
20260508100127 51 301 0.0 1.0 0.00 0.03 0.00 26 1012.7
20260508095532 51 345 0.0 6.0 0.00 0.03 0.00 25 1012.6
20260508095329 50 343 0.0 7.0 0.00 0.03 0.00 23 1012.6
20260508094804 53 310 0.0 7.0 0.00 0.03 0.00 100 1012.0
20260508094754 53 41 1.0 7.0 0.00 0.03 0.00 100 1011.9
20260508094614 50 30 0.0 7.0 0.00 0.03 0.00 21 1012.6
20260508094018 51 301 1.0 1.0 0.00 0.03 0.00 100 1012.3
20260508093906 50 39 0.0 6.0 0.00 0.03 0.00 18 1012.5
20260508093127 50 53 1.0 6.0 0.00 0.03 0.00 14 1012.5
20260508093041 52 137 1.0 9.0 0.00 0.03 0.00 100 1012.1
20260508092633 50 254 1.0 8.0 0.00 0.03 0.00 8 1012.4
20260508092432 53 309 0.0 3.0 0.00 0.03 0.00 100 1012.0
20260508091521 53 41 1.0 7.0 0.00 0.03 0.00 100 1011.9
20260508091411 51 355 1.0 8.0 0.00 0.03 0.00 100 1012.3
20260508091229 51 67 1.0 9.0 0.00 0.03 0.00 100 1012.2
20260508090902 52 137 1.0 9.0 0.00 0.03 0.00 100 1012.1
20260508084215 53 285 0.0 4.0 0.00 0.03 0.00 100 1011.8
20260508083642 53 213 0.0 6.0 0.00 0.03 0.00 100 1011.7
20260508083119 53 106 0.0 6.0 0.00 0.03 0.00 100 1011.6
20260508082527 53 240 0.0 1.0 0.00 0.03 0.00 100 1011.4
20260508082212 53 240 0.0 5.0 0.00 0.03 0.00 100 1011.4
20260508081641 53 240 0.0 5.0 0.00 0.03 0.00 100 1011.4
20260508080851 53 240 1.0 5.0 0.00 0.03 0.00 100 1011.4
20260508080323 53 240 1.0 5.0 0.00 0.03 0.00 100 1011.4
20260508075748 53 240 0.0 3.0 0.00 0.03 0.00 100 1011.3
20260508075313 53 240 0.0 3.0 0.00 0.03 0.00 100 1011.2
20260508074650 54 240 0.0 3.0 0.00 0.03 0.00 100 1011.1
20260508074130 54 240 0.0 3.0 0.00 0.03 0.00 100 1011.1
20260508073602 54 240 0.0 3.0 0.00 0.03 0.00 100 1011.1
20260508073038 54 240 0.0 3.0 0.00 0.03 0.00 100 1011.1
20260508072502 54 240 0.0 5.0 0.00 0.03 0.00 100 1011.0
20260508071919 54 240 0.0 5.0 0.00 0.03 0.00 100 1010.9
20260508071324 54 245 0.0 3.0 0.00 0.03 0.00 100 1010.8
20260508070733 54 245 0.0 3.0 0.00 0.03 0.00 100 1010.8
20260508070154 54 245 0.0 3.0 0.00 0.03 0.00 100 1010.7
20260508065655 55 245 0.0 2.0 0.00 0.03 0.00 100 1010.6
20260508065030 55 245 0.0 3.0 0.00 0.03 0.00 100 1010.6
20260508064719 55 245 0.0 1.0 0.00 0.03 0.00 100 1010.5
20260508064502 55 245 0.0 1.0 0.00 0.03 0.00 100 1010.5
20260508064144 55 245 0.0 3.0 0.00 0.03 0.00 100 1010.4
20260508063521 55 245 0.0 3.0 0.00 0.03 0.00 100 1010.2
20260508062752 55 245 0.0 3.0 0.00 0.03 0.00 100 1010.1
20260508062230 55 245 0.0 4.0 0.00 0.03 0.00 100 1010.1
20260508061644 55 245 0.0 4.0 0.00 0.03 0.00 100 1010.2
20260508061117 55 245 0.0 5.0 0.00 0.03 0.00 100 1010.2
20260508060954 55 245 0.0 5.0 0.00 0.04 0.00 100 1010.3
20260508055955 55 236 0.0 7.0 0.00 0.04 0.00 100 1010.2
20260508055417 55 236 0.0 7.0 0.00 0.04 0.00 100 1010.2
20260508055127 54 196 0.0 3.0 0.00 0.04 0.00 100 1010.3
20260508054614 54 196 0.0 3.0 0.00 0.04 0.00 100 1010.2
20260508053837 54 196 0.0 3.0 0.00 0.05 0.00 100 1010.2
20260508053130 54 196 0.0 3.0 0.00 0.05 0.00 100 1010.2
20260508052638 54 196 0.0 0.0 0.00 0.05 0.00 100 1010.2
20260508052611 54 196 0.0 0.0 0.00 0.05 0.00 100 1010.2
20260508051334 54 196 0.0 0.0 0.00 0.05 0.00 100 1010.2
20260508050802 54 196 0.0 0.0 0.00 0.05 0.00 100 1010.2
20260508050222 54 196 0.0 0.0 0.00 0.05 0.00 100 1010.3
20260508045638 54 196 0.0 0.0 0.00 0.05 0.00 100 1010.3
20260508045253 54 196 0.0 0.0 0.00 0.05 0.00 100 1010.3
20260508044533 54 196 0.0 0.0 0.00 0.05 0.00 100 1010.2
20260508044000 54 196 0.0 0.0 0.00 0.05 0.00 100 1010.2
20260508043335 54 196 0.0 0.0 0.00 0.05 0.00 100 1010.2
20260508042810 53 196 0.0 0.0 0.00 0.05 0.00 100 1010.1
20260508042234 53 196 0.0 0.0 0.00 0.05 0.00 100 1010.2
20260508041701 53 196 0.0 0.0 0.00 0.05 0.00 100 1010.1
20260508041112 53 196 0.0 0.0 0.00 0.05 0.00 100 1010.1
20260508040537 53 196 0.0 0.0 0.00 0.05 0.00 100 1010.0
20260508035954 52 196 0.0 0.0 0.00 0.05 0.05 100 1009.9
20260508035402 52 196 0.0 1.0 0.00 0.05 0.05 100 1009.9
20260508034834 51 196 0.0 0.0 0.00 0.05 0.05 100 1009.8
20260508034743 51 196 0.0 0.0 0.00 0.05 0.05 100 1009.8
20260508034532 51 196 0.0 0.0 0.00 0.05 0.05 100 1009.8
20260508033729 51 196 0.0 2.0 0.00 0.05 0.05 100 1009.7
20260508033250 51 196 0.0 2.0 0.00 0.05 0.05 100 1009.7
20260508032658 51 196 0.0 2.0 0.00 0.05 0.05 100 1009.7
20260508032205 51 196 0.0 2.0 0.00 0.05 0.05 100 1009.7
20260508031934 50 196 0.0 0.0 0.00 0.05 0.05 100 1009.7
20260508031710 50 196 0.0 0.0 0.00 0.05 0.05 100 1009.7
20260508030943 50 196 0.0 0.0 0.00 0.05 0.05 100 1009.7
20260508030403 50 196 0.0 0.0 0.00 0.05 0.05 100 1009.8